Weather History for Hebbronville, TX

Change the Weather History Date:

Monday, October 7, 2013

  Actual Average (KLRD) Record (KLRD)
Temperature  
Mean Temperature 70 °F 78 °F  
Max Temperature 84 °F 88 °F 102 °F (1931)
Min Temperature 56 °F 68 °F 44 °F (1906)
Degree Days  
Heating Degree Days 0 0  
Month to date heating degree days 0  
Since 1 July heating degree days 1  
Cooling Degree Days 5 13  
Month to date cooling degree days 96  
Year to date cooling degree days 3881  
Growing Degree Days 20 (Base 50)    
Moisture  
Dew Point 37 °F    
Average Humidity 38    
Maximum Humidity 70    
Minimum Humidity 8    
Precipitation  
Precipitation 0.00 in 0.08 in 3.34 in (1981)
Month to date precipitation 0.57  
Year to date precipitation 16.49  
Sea Level Pressure  
Sea Level Pressure 30.13 in    
Wind  
Wind Speed 7 mph (WNW)    
Max Wind Speed 12 mph    
Max Gust Speed 17 mph    
Visibility 10 miles    
Events      
T = Trace of Precipitation, MM = Missing Value Source: NWS Daily Summary

Daily Weather History Graph

Daily Weather History Graph

Search for Another Location

Airport:

Trip Planner

Search our weather history database for the weather conditions in past years. The results will help you decide how hot, cold, wet, or windy it might be!

Date:

Astronomy

Oct. 07, 2013 Rise Set
Actual Time 7:30 AM CDT 7:14 PM CDT
Civil Twilight 7:07 AM CDT 7:37 PM CDT
Nautical Twilight 6:40 AM CDT 8:04 PM CDT
Astronomical Twilight 6:13 AM CDT 8:31 PM CDT
Moon 10:05 AM CDT (10/7) 9:17 PM CDT (10/7)
Length of Visible Light 12h 30m
Length of Day
11h 43m
Waxing Crescent, 9% of the Moon is Illuminated
Oct 7
Waxing Crescent
Oct 11
First Quarter
Oct 18
Full
Oct 26
Last Quarter
Nov 3
New

Hourly Weather History & Observations

Time (CDT) Temp. Dew Point Humidity Pressure Visibility Wind Dir Wind Speed Gust Speed Precip Events Conditions
12:15 AM 60.4 °F 50.5 °F 70% 30.15 in 10.0 mi West 8.1 mph - N/A   Clear
12:35 AM 60.8 °F 49.8 °F 67% 30.15 in 10.0 mi West 6.9 mph - N/A   Clear
12:55 AM 60.8 °F 49.3 °F 66% 30.15 in 10.0 mi West 8.1 mph - N/A   Clear
1:15 AM 60.8 °F 48.7 °F 64% 30.15 in 10.0 mi West 8.1 mph - N/A   Clear
1:35 AM 60.8 °F 47.7 °F 62% 30.15 in 10.0 mi West 9.2 mph - N/A   Clear
1:55 AM 61.0 °F 46.8 °F 59% 30.15 in 10.0 mi West 9.2 mph - N/A   Clear
2:15 AM 60.4 °F 46.8 °F 61% 30.15 in 10.0 mi West 8.1 mph - N/A   Clear
2:35 AM 59.9 °F 46.6 °F 61% 30.14 in 10.0 mi West 9.2 mph - N/A   Clear
2:55 AM 59.5 °F 46.4 °F 62% 30.14 in 10.0 mi West 8.1 mph - N/A   Clear
3:15 AM 59.0 °F 46.0 °F 62% 30.14 in 10.0 mi West 9.2 mph - N/A   Clear
3:35 AM 59.7 °F 45.0 °F 58% 30.13 in 10.0 mi West 9.2 mph - N/A   Clear
3:55 AM 60.3 °F 44.6 °F 56% 30.13 in 10.0 mi West 9.2 mph - N/A   Clear
4:15 AM 60.4 °F 44.2 °F 55% 30.13 in 10.0 mi West 9.2 mph - N/A   Clear
4:35 AM 60.3 °F 43.7 °F 54% 30.13 in 10.0 mi West 9.2 mph - N/A   Clear
4:55 AM 59.9 °F 43.5 °F 55% 30.13 in 10.0 mi West 8.1 mph - N/A   Clear
5:15 AM 59.2 °F 43.7 °F 57% 30.13 in 10.0 mi West 8.1 mph - N/A   Clear
5:35 AM 58.5 °F 43.7 °F 58% 30.14 in 10.0 mi WNW 8.1 mph - N/A   Clear
5:55 AM 58.5 °F 43.3 °F 57% 30.13 in 10.0 mi West 8.1 mph - N/A   Clear
6:15 AM 58.1 °F 43.3 °F 58% 30.14 in 10.0 mi WNW 6.9 mph - N/A   Clear
6:35 AM 57.4 °F 43.5 °F 60% 30.14 in 10.0 mi WNW 6.9 mph - N/A   Clear
6:55 AM 56.7 °F 43.7 °F 62% 30.14 in 10.0 mi WNW 6.9 mph - N/A   Clear
7:15 AM 56.8 °F 43.5 °F 61% 30.14 in 10.0 mi WNW 6.9 mph - N/A   Clear
7:35 AM 57.0 °F 43.5 °F 61% 30.14 in 10.0 mi West 8.1 mph - N/A   Clear
7:55 AM 57.2 °F 44.1 °F 62% 30.15 in 10.0 mi WNW 5.8 mph - N/A   Clear
8:15 AM 59.2 °F 45.0 °F 59% 30.15 in 10.0 mi WNW 6.9 mph - N/A   Clear
8:35 AM 61.7 °F 45.5 °F 55% 30.16 in 10.0 mi WNW 8.1 mph - N/A   Clear
8:55 AM 64.0 °F 45.9 °F 52% 30.17 in 10.0 mi WNW 8.1 mph - N/A   Clear
9:15 AM 66.7 °F 45.0 °F 45% 30.17 in 10.0 mi WNW 8.1 mph - N/A   Clear
9:35 AM 69.4 °F 43.9 °F 40% 30.17 in 10.0 mi WNW 10.4 mph - N/A   Clear
9:55 AM 72.0 °F 42.6 °F 35% 30.18 in 10.0 mi WNW 11.5 mph - N/A   Clear
10:15 AM 73.9 °F 40.8 °F 30% 30.18 in 10.0 mi NW 10.4 mph - N/A   Clear
10:35 AM 75.4 °F 38.7 °F 27% 30.18 in 10.0 mi WNW 10.4 mph - N/A   Clear
10:55 AM 76.6 °F 38.1 °F 25% 30.18 in 10.0 mi WNW 9.2 mph - N/A   Clear
11:15 AM 77.5 °F 36.0 °F 22% 30.18 in 10.0 mi NNW 9.2 mph - N/A   Clear
11:35 AM 78.6 °F 33.8 °F 20% 30.18 in 10.0 mi NNW 9.2 mph - N/A   Clear
11:55 AM 79.3 °F 31.1 °F 17% 30.18 in 10.0 mi WNW 6.9 mph - N/A   Clear
12:15 PM 80.1 °F 30.2 °F 16% 30.18 in 10.0 mi NW 6.9 mph - N/A   Clear
12:35 PM 81.0 °F 30.7 °F 16% 30.17 in 10.0 mi North 3.5 mph - N/A   Clear
12:55 PM 81.3 °F 21.7 °F 11% 30.16 in 10.0 mi NE 4.6 mph - N/A   Clear
1:15 PM 82.4 °F 20.8 °F 10% 30.15 in 10.0 mi East 4.6 mph - N/A   Clear
1:35 PM 82.8 °F 17.6 °F 9% 30.14 in 10.0 mi North 5.8 mph 9.2 mph N/A   Clear
1:55 PM 82.6 °F 15.6 °F 8% 30.13 in 10.0 mi NE 5.8 mph - N/A   Clear
2:15 PM 83.3 °F 14.2 °F 8% 30.12 in 10.0 mi East 3.5 mph 17.3 mph N/A   Clear
2:35 PM 83.3 °F 16.9 °F 8% 30.11 in 10.0 mi NE 6.9 mph - N/A   Clear
2:55 PM 83.7 °F 16.2 °F 8% 30.11 in 10.0 mi NE 5.8 mph - N/A   Clear
3:15 PM 83.5 °F 16.5 °F 8% 30.10 in 10.0 mi North 5.8 mph - N/A   Clear
3:35 PM 83.7 °F 17.1 °F 8% 30.09 in 10.0 mi North 4.6 mph - N/A   Clear
3:55 PM 84.0 °F 19.6 °F 9% 30.09 in 10.0 mi Calm Calm - N/A   Clear
4:15 PM 83.8 °F 22.3 °F 10% 30.08 in 10.0 mi NE 4.6 mph - N/A   Clear
4:35 PM 84.0 °F 23.2 °F 11% 30.08 in 10.0 mi North 4.6 mph - N/A   Clear
4:55 PM 84.0 °F 22.3 °F 10% 30.07 in 10.0 mi Calm Calm - N/A   Clear
5:15 PM 84.0 °F 22.6 °F 10% 30.07 in 10.0 mi North 6.9 mph - N/A   Clear
5:35 PM 84.0 °F 21.7 °F 10% 30.07 in 10.0 mi Calm Calm - N/A   Clear
5:55 PM 83.7 °F 23.5 °F 11% 30.07 in 10.0 mi North 4.6 mph - N/A   Clear
6:15 PM 83.5 °F 27.5 °F 13% 30.07 in 10.0 mi East 5.8 mph - N/A   Clear
6:35 PM 82.0 °F 32.2 °F 16% 30.07 in 10.0 mi East 5.8 mph - N/A   Clear
6:55 PM 79.9 °F 35.8 °F 20% 30.08 in 10.0 mi East 5.8 mph - N/A   Clear
7:15 PM 77.4 °F 38.7 °F 25% 30.08 in 10.0 mi East 4.6 mph - N/A   Clear
7:35 PM 75.4 °F 39.0 °F 27% 30.08 in 10.0 mi East 4.6 mph - N/A   Clear
7:55 PM 73.2 °F 39.9 °F 30% 30.08 in 10.0 mi Calm Calm - N/A   Clear
8:15 PM 72.1 °F 40.6 °F 32% 30.08 in 10.0 mi SE 3.5 mph - N/A   Clear
8:35 PM 71.6 °F 41.4 °F 33% 30.09 in 10.0 mi SE 3.5 mph - N/A   Clear
8:55 PM 70.2 °F 41.5 °F 35% 30.10 in 10.0 mi Calm Calm - N/A   Clear
9:15 PM 68.9 °F 43.0 °F 39% 30.10 in 10.0 mi Calm Calm - N/A   Clear
9:35 PM 67.3 °F 44.2 °F 43% 30.10 in 10.0 mi SSW 3.5 mph - N/A   Clear
9:55 PM 65.7 °F 45.3 °F 48% 30.10 in 10.0 mi SSW 3.5 mph - N/A   Clear
10:15 PM 65.1 °F 45.1 °F 48% 30.10 in 10.0 mi SSW 4.6 mph - N/A   Clear
10:35 PM 64.2 °F 45.5 °F 51% 30.10 in 10.0 mi SSW 3.5 mph - N/A   Clear
10:55 PM 64.4 °F 44.6 °F 49% 30.10 in 10.0 mi SSE 4.6 mph - N/A   Clear
11:15 PM 64.6 °F 43.7 °F 47% 30.11 in 10.0 mi SSE 5.8 mph - N/A   Clear
11:35 PM 63.3 °F 44.4 °F 50% 30.10 in 10.0 mi SE 5.8 mph - N/A   Clear
11:55 PM 62.2 °F 45.3 °F 54% 30.10 in 10.0 mi South 4.6 mph - N/A   Clear